DMSP 5D-3 F16 (USA 172) 1 28054U 03048A 26263.60697235 .00000012 00000+0 30180-4 0 9999 2 28054 98.9861 288.0522 0006181 231.4748 286.4405 14.14491284182978 METEOSAT-9 (MSG-2) 1 28912U 05049B 26262.57364397 .00000122 00000+0 00000+0 0 9995 2 28912 9.5708 53.2063 0001874 351.9658 205.6064 1.00277585 7947 DMSP 5D-3 F17 (USA 191) 1 29522U 06050A 26263.55885458 .00000088 00000+0 67547-4 0 9996 2 29522 98.7428 268.1979 0010808 138.8268 221.3723 14.15008914 25915 FENGYUN 3A 1 32958U 08026A 26263.41094609 .00000034 00000+0 36783-4 0 9992 2 32958 98.6940 202.4824 0008043 207.6284 152.4466 14.19587637948911 EWS-G3 (GOES 14) 1 35491U 09033A 26263.57813507 -.00000084 00000+0 00000+0 0 9993 2 35491 1.9289 81.6875 0002196 92.3845 112.5227 1.00071005 7547 DMSP 5D-3 F18 (USA 210) 1 35951U 09057A 26263.60597608 .00000143 00000+0 96895-4 0 9992 2 35951 98.9157 244.2188 0010871 346.4050 13.6829 14.14943221873088 EWS-G2 (GOES 15) 1 36411U 10008A 26263.57501505 .00000018 00000+0 00000+0 0 9998 2 36411 1.5339 81.8016 0005150 82.6051 105.3772 1.00272507 60594 FENGYUN 3B 1 37214U 10059A 26263.64210340 .00000467 00000+0 26497-3 0 9998 2 37214 98.9531 310.0183 0021054 276.6302 196.2916 14.14859310820929 SUOMI NPP 1 37849U 11061A 26263.63714501 .00000039 00000+0 39451-4 0 9993 2 37849 98.8011 203.8816 0002737 64.3425 295.8034 14.19534120771984 METEOSAT-10 (MSG-3) 1 38552U 12035B 26263.27735449 -.00000009 00000+0 00000+0 0 9992 2 38552 4.8917 60.4800 0000929 102.6232 295.9878 1.00272709 51819 METOP-B 1 38771U 12049A 26263.56872353 .00000033 00000+0 34795-4 0 9997 2 38771 98.6407 313.1201 0003383 79.2712 280.8846 14.21460021726819 INSAT-3D 1 39216U 13038B 26263.58810177 -.00000342 00000+0 00000+0 0 9990 2 39216 2.1647 81.2276 0001370 111.6332 147.8445 1.00269403 48030 FENGYUN 3C 1 39260U 13052A 26263.59390954 .00000068 00000+0 55553-4 0 9994 2 39260 98.5111 233.1418 0015754 107.2759 253.0141 14.15772689672069 METEOR-M 2 1 40069U 14037A 26263.59371510 -.00000086 00000+0 -20088-4 0 9991 2 40069 98.5244 236.0073 0006789 113.2213 246.9681 14.21484180632872 HIMAWARI-8 1 40267U 14060A 26263.51902812 .00000000 00000+0 00000+0 0 9995 2 40267 0.0128 137.5088 0000934 45.8963 143.5134 1.00271188 43719 FENGYUN 2G 1 40367U 14090A 26263.65429928 -.00000305 00000+0 00000+0 0 9995 2 40367 5.8739 71.6140 0003668 185.6928 77.5724 1.00271868 42950 METEOSAT-11 (MSG-4) 1 40732U 15034A 26263.35051176 .00000060 00000+0 00000+0 0 9990 2 40732 3.4345 70.4154 0000543 85.8180 338.4834 1.00274765 8171 ELEKTRO-L 2 1 41105U 15074A 26262.77533097 -.00000119 00000+0 00000+0 0 9997 2 41105 6.9259 69.3210 0001609 194.3390 359.6378 1.00272630 39453 SENTINEL-3A 1 41335U 16011A 26263.59317548 .00000028 00000+0 29521-4 0 9998 2 41335 98.6276 329.5954 0001164 106.5035 253.6273 14.26735722551665 INSAT-3DR 1 41752U 16054A 26263.57718172 -.00000082 00000+0 00000+0 0 9991 2 41752 0.0473 95.1922 0011679 169.0337 17.0548 1.00272404 36774 HIMAWARI-9 1 41836U 16064A 26262.93794703 .00000000 00000+0 00000+0 0 9997 2 41836 0.0166 151.6282 0001900 79.4703 246.1576 1.00269983 36167 GOES 16 1 41866U 16071A 26263.47987600 -.00000095 00000+0 00000+0 0 9993 2 41866 0.5687 84.3019 0001699 128.6556 214.5006 1.00271869 36052 FENGYUN 4A 1 41882U 16077A 26263.59643255 -.00000361 00000+0 00000+0 0 9991 2 41882 2.5575 79.0668 0007856 165.7929 92.4618 1.00270548 35881 CYGFM05 1 41884U 16078A 26263.54434157 .00021528 00000+0 24918-3 0 9993 2 41884 34.9571 347.1904 0004987 340.3898 19.6636 15.60837830543641 CYGFM04 1 41885U 16078B 26263.49695669 .00029653 00000+0 26720-3 0 9995 2 41885 34.9318 309.7558 0003194 46.1758 313.9233 15.67121326543933 CYGFM02 1 41886U 16078C 26263.53002474 .00038954 00000+0 28641-3 0 9995 2 41886 34.9398 300.6456 0003628 64.4676 295.6427 15.71972228544148 CYGFM01 1 41887U 16078D 26263.55071825 .00022795 00000+0 25524-3 0 9997 2 41887 34.9401 347.3554 0004735 335.3848 24.6651 15.61686780543605 CYGFM08 1 41888U 16078E 26263.57962913 .00026831 00000+0 26184-3 0 9995 2 41888 34.9433 323.8709 0005057 16.7689 343.3205 15.65148369543902 CYGFM07 1 41890U 16078G 26263.53216582 .00026676 00000+0 25919-3 0 9990 2 41890 34.9443 312.4375 0003701 39.1392 320.9602 15.65267091543921 CYGFM03 1 41891U 16078H 26263.56788670 .00026735 00000+0 25995-3 0 9996 2 41891 34.9401 314.1144 0003112 19.7575 340.3272 15.65250989543907 FENGYUN 3D 1 43010U 17072A 26263.56966255 .00000111 00000+0 74248-4 0 9999 2 43010 99.0254 239.7683 0002240 112.8412 247.3001 14.19755676458526 NOAA 20 (JPSS-1) 1 43013U 17073A 26263.58034395 .00000043 00000+0 41479-4 0 9990 2 43013 98.7823 202.2130 0001342 43.0680 317.0601 14.19526757458003 GOES 17 1 43226U 18022A 26263.48614958 -.00000187 00000+0 00000+0 0 9999 2 43226 1.1755 84.0967 0000793 122.9018 237.9194 1.00273127 31376 SENTINEL-3B 1 43437U 18039A 26263.14552003 .00000037 00000+0 33229-4 0 9993 2 43437 98.6272 329.3035 0001255 75.1152 285.0167 14.26738280437662 FENGYUN 2H 1 43491U 18050A 26263.43565447 -.00000133 00000+0 00000+0 0 9998 2 43491 3.2693 77.8709 0002493 146.4362 11.1931 1.00272308 30392 METOP-C 1 43689U 18087A 26263.51354367 .00000033 00000+0 35425-4 0 9995 2 43689 98.7333 321.4106 0000639 56.0664 304.0574 14.21473582408379 GEO-KOMPSAT-2A 1 43823U 18100A 26263.60025830 -.00000348 00000+0 00000+0 0 9997 2 43823 0.0439 13.4779 0001894 111.3437 219.0435 1.00271755 28586 METEOR-M2 2 1 44387U 19038A 26263.56798272 .00000100 00000+0 63014-4 0 9990 2 44387 98.9255 252.3068 0002324 92.1652 267.9792 14.24387292374871 FENGYUN 3E 1 49008U 21062A 26263.61368264 .00000017 00000+0 28652-4 0 9991 2 49008 98.7558 265.9807 0001974 137.4290 222.7040 14.19911442270124 GOES 18 1 51850U 22021A 26263.46745263 .00000092 00000+0 00000+0 0 9991 2 51850 0.0406 341.4374 0000296 237.8658 171.3534 1.00272938 7545 NOAA 21 (JPSS-2) 1 54234U 22150A 26263.54109192 .00000011 00000+0 25770-4 0 9994 2 54234 98.7106 200.7414 0000804 311.5072 48.6035 14.19549939200079 METEOSAT-12 (MTG-I1) 1 54743U 22170C 26263.13470050 -.00000012 00000+0 00000+0 0 9996 2 54743 0.7364 19.9607 0003857 93.6974 293.4113 1.00272705 13931 TIANMU-1 03 1 55973U 23039A 26263.62221002 .00012106 00000+0 21954-3 0 9993 2 55973 97.5273 81.5431 0003641 103.7726 256.3930 15.49757710195601 TIANMU-1 04 1 55974U 23039B 26263.57207228 .00012176 00000+0 21550-3 0 9991 2 55974 97.5198 80.6595 0004883 96.4870 263.6938 15.50443729195610 TIANMU-1 05 1 55975U 23039C 26263.60793784 .00012133 00000+0 22076-3 0 9990 2 55975 97.5248 81.1090 0003704 116.2526 243.9106 15.49663846195589 TIANMU-1 06 1 55976U 23039D 26263.58231929 .00012383 00000+0 22017-3 0 9998 2 55976 97.5256 81.8171 0003557 110.9207 249.2425 15.50316186195610 FENGYUN 3G 1 56232U 23055A 26263.58272212 .00018547 00000+0 28856-3 0 9997 2 56232 49.9911 214.1093 0011328 58.2587 301.9483 15.53846471194830 METEOR-M2 3 1 57166U 23091A 26263.58467344 -.00000025 00000+0 81192-5 0 9993 2 57166 98.5987 316.5638 0002883 245.4684 114.6194 14.24052758168097 TIANMU-1 07 1 57399U 23101A 26263.63339450 .00003962 00000+0 13584-3 0 9995 2 57399 97.2506 312.1234 0003659 131.7804 228.3751 15.30748333176242 TIANMU-1 08 1 57400U 23101B 26263.59996207 .00003879 00000+0 13303-3 0 9998 2 57400 97.2494 311.8473 0005167 127.8670 232.3039 15.30745732176238 TIANMU-1 09 1 57401U 23101C 26263.58233388 .00003995 00000+0 13699-3 0 9999 2 57401 97.2453 311.1952 0004371 138.6629 221.4944 15.30729902176234 TIANMU-1 10 1 57402U 23101D 26263.61508176 .00004051 00000+0 13865-3 0 9993 2 57402 97.2532 312.3793 0005607 140.1104 220.0550 15.30783647176232 FENGYUN 3F 1 57490U 23111A 26263.59516403 .00000000 00000+0 20587-4 0 9990 2 57490 98.6751 331.7845 0001282 112.8360 247.2952 14.19951725162406 TIANMU-1 11 1 58645U 23205A 26263.63536752 .00003405 00000+0 12794-3 0 9993 2 58645 97.3435 283.7400 0009553 36.9445 323.2451 15.27816068152099 TIANMU-1 12 1 58646U 23205B 26263.62204617 .00003499 00000+0 13273-3 0 9991 2 58646 97.3425 283.4316 0007980 25.5690 334.5942 15.27488753152074 TIANMU-1 13 1 58647U 23205C 26263.58836687 .00003515 00000+0 13343-3 0 9992 2 58647 97.3451 283.7063 0006107 10.0877 350.0484 15.27479448152066 TIANMU-1 14 1 58648U 23205D 26263.63690634 .00003497 00000+0 13263-3 0 9999 2 58648 97.3389 282.8612 0007013 13.1850 346.9571 15.27501932152075 TIANMU-1 19 1 58660U 23208A 26263.56861458 .00005849 00000+0 18675-3 0 9997 2 58660 97.4573 20.4872 0004296 353.9429 6.1760 15.32867910151932 TIANMU-1 20 1 58661U 23208B 26263.59759102 .00005902 00000+0 18144-3 0 9994 2 58661 97.4518 21.2525 0006419 354.4202 5.6968 15.34063265152040 TIANMU-1 21 1 58662U 23208C 26263.56488484 .00006990 00000+0 19770-3 0 9998 2 58662 97.4584 24.3359 0006251 346.4692 13.6384 15.36624901152202 TIANMU-1 22 1 58663U 23208D 26263.58594677 .00005410 00000+0 17633-3 0 9995 2 58663 97.4569 20.3527 0003787 24.1404 336.0014 15.32245316151937 TIANMU-1 15 1 58700U 24004A 26263.63395838 .00003596 00000+0 13645-3 0 9998 2 58700 97.4673 89.8699 0007379 11.9067 348.2345 15.27490181150347 TIANMU-1 16 1 58701U 24004B 26263.61913084 .00001423 00000+0 55661-4 0 9998 2 58701 97.4621 89.0360 0006138 25.6807 334.4735 15.27502682150344 TIANMU-1 17 1 58702U 24004C 26263.60450505 .00003649 00000+0 13802-3 0 9994 2 58702 97.4649 89.5407 0006145 34.4227 325.7409 15.27591278150333 TIANMU-1 18 1 58703U 24004D 26263.58473109 .00003518 00000+0 13358-3 0 9998 2 58703 97.4666 89.7891 0005228 18.7588 341.3843 15.27487463150334 INSAT-3DS 1 58990U 24033A 26263.57874174 -.00000160 00000+0 00000+0 0 9991 2 58990 0.0176 227.8959 0001337 310.3715 111.6484 1.00272887 48027 METEOR-M2 4 1 59051U 24039A 26263.63719692 .00000010 00000+0 24140-4 0 9995 2 59051 98.7126 221.7821 0005934 252.0707 107.9824 14.22437905132837 GOES 19 1 60133U 24119A 26263.47630132 -.00000253 00000+0 00000+0 0 9994 2 60133 0.0389 8.8975 0000357 242.1258 204.6328 1.00271446 7929 MTG-S1 1 64723U 25143A 26263.56227500 -.00000010 00000+0 00000+0 0 9993 2 64723 0.6195 341.6990 0003600 252.6910 327.2262 1.00272703 4371 METOP-SGA1 1 65159U 25172A 26263.12546076 .00000001 00000+0 20310-4 0 9993 2 65159 98.7069 321.1169 0000844 95.7794 264.3480 14.21503483 57276 FENGYUN 3H 1 65815U 25219A 26263.59278956 .00000028 00000+0 33513-4 0 9992 2 65815 98.6823 202.5256 0001433 97.8696 262.2644 14.19933526 50926